TimeEST,TemperatureF,Dew PointF,Humidity,Sea Level PressureIn,VisibilityMPH,Wind Direction,Wind SpeedMPH,Gust SpeedMPH,PrecipitationIn,Events,Conditions,WindDirDegrees,DateUTC
12:53 AM,28.9,24.1,82,29.93,10.0,SE,4.6,-,N/A,,Clear,140,2013-02-13 05:53:00
1:53 AM,28.0,24.1,85,29.91,10.0,South,8.1,-,N/A,,Clear,170,2013-02-13 06:53:00
2:53 AM,30.0,23.0,75,29.89,9.0,South,6.9,-,N/A,,Clear,180,2013-02-13 07:53:00
3:53 AM,28.9,23.0,78,29.87,10.0,South,5.8,-,N/A,,Clear,180,2013-02-13 08:53:00
4:53 AM,28.9,21.9,75,29.87,10.0,South,5.8,-,N/A,,Partly Cloudy,180,2013-02-13 09:53:00
5:53 AM,30.0,21.9,72,29.86,10.0,South,3.5,-,N/A,,Clear,180,2013-02-13 10:53:00
6:53 AM,28.0,23.0,81,29.84,7.0,Calm,Calm,-,N/A,,Scattered Clouds,0,2013-02-13 11:53:00
7:53 AM,26.1,24.1,92,29.82,4.0,North,3.5,-,N/A,,Partly Cloudy,360,2013-02-13 12:53:00
8:53 AM,30.0,25.0,82,29.80,6.0,North,3.5,-,N/A,,Haze,10,2013-02-13 13:53:00
9:53 AM,34.0,27.0,75,29.80,9.0,Calm,Calm,-,N/A,,Mostly Cloudy,0,2013-02-13 14:53:00
10:53 AM,37.0,27.0,67,29.78,10.0,Variable,3.5,-,N/A,,Overcast,0,2013-02-13 15:53:00
11:53 AM,37.9,26.1,62,29.78,10.0,NNW,3.5,-,N/A,,Overcast,330,2013-02-13 16:53:00
12:53 PM,37.9,27.0,65,29.73,8.0,North,5.8,-,N/A,,Overcast,350,2013-02-13 17:53:00
1:53 PM,37.9,27.0,65,29.72,10.0,Calm,Calm,-,N/A,,Overcast,0,2013-02-13 18:53:00
2:53 PM,37.9,27.0,65,29.70,10.0,Calm,Calm,-,N/A,,Overcast,0,2013-02-13 19:53:00
3:00 PM,37.4,26.6,65,29.66,2.5,Calm,Calm,-,0.00,Snow,Light Snow,0,2013-02-13 20:00:00
3:53 PM,34.0,32.0,92,29.72,2.5,South,3.5,-,0.00,Snow,Light Snow,170,2013-02-13 20:53:00
4:02 PM,33.8,32.0,93,29.67,1.0,Calm,Calm,-,0.00,Snow,Light Snow,0,2013-02-13 21:02:00
4:18 PM,33.8,30.2,87,29.67,1.0,West,4.6,-,0.00,Snow,Light Snow,280,2013-02-13 21:18:00
4:53 PM,32.0,32.0,100,29.73,0.5,Calm,Calm,-,0.00,Fog-Snow,Light Snow,0,2013-02-13 21:53:00
5:19 PM,32.0,32.0,100,29.68,0.2,NW,5.8,-,0.00,Fog-Snow,Snow,320,2013-02-13 22:19:00
5:53 PM,32.0,32.0,100,29.74,0.5,NW,6.9,-,0.01,Fog-Snow,Light Snow,320,2013-02-13 22:53:00
6:00 PM,32.0,30.2,93,29.69,0.8,NW,5.8,-,0.00,Snow,Light Snow,320,2013-02-13 23:00:00
6:13 PM,32.0,30.2,93,29.69,1.0,NW,6.9,-,0.00,Snow,Light Snow,320,2013-02-13 23:13:00
6:53 PM,32.0,32.0,100,29.76,0.8,NW,6.9,-,0.00,Snow,Light Snow,310,2013-02-13 23:53:00
7:10 PM,32.0,30.2,93,29.72,0.8,Variable,5.8,-,0.00,Snow,Light Snow,0,2013-02-14 00:10:00
7:53 PM,30.9,30.9,100,29.79,1.0,NW,5.8,-,0.00,Snow,Light Snow,310,2013-02-14 00:53:00
8:34 PM,30.2,30.2,100,29.75,2.0,WNW,4.6,-,0.00,Snow,Light Snow,300,2013-02-14 01:34:00
8:42 PM,30.2,30.2,100,29.76,1.8,WNW,5.8,-,0.00,Snow,Light Snow,300,2013-02-14 01:42:00
8:50 PM,30.2,30.2,100,29.76,2.5,WNW,6.9,-,0.00,Snow,Light Snow,300,2013-02-14 01:50:00
8:51 PM,30.9,30.0,96,29.81,2.5,WNW,5.8,-,0.00,Snow,Light Snow,300,2013-02-14 01:51:00
8:54 PM,30.2,30.2,100,29.76,3.0,WNW,4.6,-,N/A,,Overcast,300,2013-02-14 01:54:00
9:53 PM,30.0,28.9,96,29.83,4.0,WNW,6.9,-,N/A,,Overcast,290,2013-02-14 02:53:00
10:00 PM,30.2,28.4,93,29.78,4.0,West,6.9,-,N/A,,Clear,280,2013-02-14 03:00:00
10:53 PM,28.0,27.0,96,29.85,4.0,West,6.9,-,N/A,,Clear,270,2013-02-14 03:53:00
11:53 PM,28.0,27.0,96,29.87,4.0,West,9.2,-,N/A,,Mostly Cloudy,280,2013-02-14 04:53:00